Cocoa Beach, FL

2:06 AM EST on December 13, 2017 (GMT -0500)
Patrick Air Force Base

Weather History for KCOF - May, 2014

Change the Weather History Date:

Thursday, May 8, 2014

  Actual Average Record
Temperature  
Mean Temperature 79 °F -  
Max Temperature 83 °F 80 °F 91 °F (1998)
Min Temperature 75 °F 68 °F 61 °F (2007)
Cooling Degree Days 14    
Growing Degree Days 29 (Base 50)    
Moisture  
Dew Point 72 °F    
Average Humidity 78    
Maximum Humidity 87    
Minimum Humidity 67    
Precipitation  
Precipitation 0.00 in - - ()
Sea Level Pressure  
Sea Level Pressure 30.20 in    
Wind  
Wind Speed 12 mph (SE)    
Max Wind Speed 14 mph    
Max Gust Speed -    
Visibility 10 miles    
Events      
Averages and records for this station are not official NWS values.
T = Trace of Precipitation, MM = Missing Value Source: NWS Daily Summary

Daily Weather History Graph

Daily Weather History Graph

Search for Another Location

Airport or City:

Trip Planner

Search our weather history database for the weather conditions in past years. The results will help you decide how hot, cold, wet, or windy it might be!

Date:

Astronomy

May. 08, 2014 Rise Set
Actual Time 6:36 AM EDT 8:01 PM EDT
Civil Twilight 6:11 AM EDT 8:26 PM EDT
Nautical Twilight 5:41 AM EDT 8:56 PM EDT
Astronomical Twilight 5:10 AM EDT 9:28 PM EDT
Moon 2:30 PM EDT (5/8) 2:35 AM EDT (5/8)
Length of Visible Light 14h 15m
Length of Day
13h 24m
Waxing Gibbous, 64% of the Moon is Illuminated
May 8
Waxing Gibbous
May 14
Full
May 21
Last Quarter
May 28
New
Jun 5
First Quarter

Hourly Weather History & Observations

Time (EDT) Temp. Heat Index Dew Point Humidity Pressure Visibility Wind Dir Wind Speed Gust Speed Precip Events Conditions
12:58 AM 76.5 °F - 71.4 °F 84% 30.17 in 10.0 mi SE 11.5 mph - N/A   Clear
1:58 AM 76.1 °F - 71.4 °F 85% 30.16 in 10.0 mi SE 13.8 mph - N/A   Clear
2:58 AM 76.1 °F - 71.1 °F 84% 30.14 in 10.0 mi SE 12.7 mph - N/A   Clear
3:58 AM 75.9 °F - 70.9 °F 84% 30.14 in 10.0 mi SE 13.8 mph - N/A   Clear
4:58 AM 75.7 °F - 71.1 °F 85% 30.14 in 10.0 mi SE 12.7 mph - N/A   Clear
5:58 AM 75.6 °F - 70.9 °F 85% 30.17 in 10.0 mi SSE 10.4 mph - N/A   Clear
6:58 AM 75.2 °F - 71.2 °F 87% 30.19 in 10.0 mi SE 9.2 mph - N/A   Clear
7:58 AM 77.7 °F - 72.0 °F 82% 30.21 in 10.0 mi SE 8.1 mph - N/A   Clear
8:58 AM 79.7 °F - 72.0 °F 77% 30.22 in 10.0 mi SE 9.2 mph - N/A   Clear
9:58 AM 81.0 °F 85.1 °F 71.4 °F 73% 30.22 in 10.0 mi SE 9.2 mph - N/A   Clear
10:58 AM 81.9 °F 86.4 °F 71.6 °F 71% 30.25 in 10.0 mi SE 9.2 mph - N/A   Clear
11:58 AM 82.0 °F 86.7 °F 72.0 °F 71% 30.24 in 10.0 mi SE 10.4 mph - N/A   Clear
12:58 PM 83.1 °F 88.1 °F 71.4 °F 68% 30.24 in 10.0 mi ESE 10.4 mph - N/A   Clear
1:58 PM 83.3 °F 88.4 °F 72.0 °F 68% 30.22 in 10.0 mi ESE 10.4 mph - N/A   Clear
2:58 PM 83.5 °F 88.5 °F 71.4 °F 67% 30.21 in 10.0 mi ESE 11.5 mph - N/A   Clear
3:58 PM 83.3 °F 88.2 °F 71.4 °F 67% 30.19 in 10.0 mi SE 11.5 mph - N/A   Clear
4:58 PM 82.2 °F 87.1 °F 72.1 °F 71% 30.19 in 10.0 mi ESE 12.7 mph - N/A   Clear
5:58 PM 81.5 °F 86.5 °F 72.9 °F 75% 30.17 in 10.0 mi ESE 10.4 mph - N/A   Clear
6:58 PM 80.1 °F 84.0 °F 72.3 °F 77% 30.19 in 10.0 mi ESE 12.7 mph - N/A   Clear
7:58 PM 78.4 °F - 73.2 °F 84% 30.19 in 10.0 mi ESE 12.7 mph - N/A   Clear
8:58 PM 77.4 °F - 72.0 °F 83% 30.21 in 10.0 mi ESE 12.7 mph - N/A   Clear
9:58 PM 77.0 °F - 72.0 °F 84% 30.21 in 10.0 mi SE 11.5 mph - N/A   Clear
10:58 PM 76.6 °F - 71.6 °F 84% 30.22 in 10.0 mi SE 13.8 mph - N/A   Clear
11:58 PM 76.5 °F - 71.2 °F 84% 30.22 in 10.0 mi SE 13.8 mph - N/A   Clear